Weather History for Toledo, OH

Change the Weather History Date:

Saturday, March 16, 2013

  Actual Average Record
Temperature  
Mean Temperature 33 °F 38 °F  
Max Temperature 35 °F 47 °F 78 °F (1945)
Min Temperature 30 °F 28 °F 2 °F (1900)
Degree Days  
Heating Degree Days 32 27  
Month to date heating degree days 508 484  
Since 1 July heating degree days 4964 5060  
Cooling Degree Days 0 0  
Month to date cooling degree days 0 0  
Year to date cooling degree days 0 0  
Moisture  
Dew Point 29 °F    
Average Humidity 84    
Maximum Humidity 96    
Minimum Humidity 72    
Precipitation  
Precipitation 0.05 in 0.08 in 0.44 in (1984)
Month to date precipitation 0.44 1.20  
Year to date precipitation 6.88 5.32  
Snow  
Snow T in 0.20 in - ()
Month to date snowfall 0.1 3.6  
Since 1 July snowfall 22.6 34.1  
Snow Depth 0.00 in    
Sea Level Pressure  
Sea Level Pressure 29.85 in    
Wind  
Wind Speed 10 mph (NNE)    
Max Wind Speed 20 mph    
Max Gust Speed 24 mph    
Visibility 7 miles    
Events Rain    
T = Trace of Precipitation, MM = Missing Value Source: NWS Daily Summary

Daily Weather History Graph

Daily Weather History Graph

Search for Another Location

Airport:

Trip Planner

Search our weather history database for the weather conditions in past years. The results will help you decide how hot, cold, wet, or windy it might be!

Date:

Astronomy

Mar. 16, 2013 Rise Set
Actual Time 7:44 AM EDT 7:43 PM EDT
Civil Twilight 7:17 AM EDT 8:10 PM EDT
Nautical Twilight 6:45 AM EDT 8:43 PM EDT
Astronomical Twilight 6:12 AM EDT 9:16 PM EDT
Moon 10:10 AM EDT (3/16) No Moon Set
Length of Visible Light 12h 53m
Length of Day
11h 58m
Waxing Crescent, 23% of the Moon is Illuminated
Mar 16
Waxing Crescent
Mar 19
First Quarter
Mar 27
Full
Apr 3
Last Quarter
Apr 10
New

Hourly Weather History & Observations

Time (EDT) Temp. Windchill Dew Point Humidity Pressure Visibility Wind Dir Wind Speed Gust Speed Precip Events Conditions
12:49 AM 35.6 °F 29.9 °F 33.8 °F 93% 29.80 in 2.5 mi East 6.9 mph - N/A   Overcast
12:52 AM 35.1 °F 28.6 °F 33.1 °F 92% 29.82 in 2.5 mi East 8.1 mph - 0.00 in   Overcast
1:52 AM 35.1 °F 29.3 °F 33.1 °F 92% 29.81 in 3.0 mi East 6.9 mph - 0.01 in Rain Light Rain
2:11 AM 35.6 °F 31.7 °F 33.8 °F 93% 29.79 in 2.5 mi East 4.6 mph - 0.01 in Rain Light Rain
2:29 AM 35.6 °F 29.2 °F 33.8 °F 93% 29.77 in 3.0 mi ENE 8.1 mph - 0.01 in Rain Light Rain
2:38 AM 33.8 °F 27.0 °F 33.8 °F 100% 29.77 in 2.5 mi ENE 8.1 mph - 0.01 in Rain Light Rain
2:50 AM 33.8 °F 26.4 °F 32.0 °F 93% 29.76 in 3.0 mi ENE 9.2 mph - 0.01 in Rain Light Rain
2:52 AM 34.0 °F 26.0 °F 32.0 °F 92% 29.78 in 3.0 mi ENE 10.4 mph - 0.01 in Rain Light Rain
3:52 AM 34.0 °F 26.6 °F 32.0 °F 92% 29.76 in 3.0 mi East 9.2 mph - 0.00 in   Overcast
4:24 AM 33.8 °F 25.8 °F 32.0 °F 93% 29.74 in 2.0 mi ENE 10.4 mph - N/A   Overcast
4:34 AM 33.8 °F 24.8 °F 32.0 °F 93% 29.74 in 1.8 mi ENE 12.7 mph - 0.01 in Rain Light Rain
4:52 AM 33.1 °F 23.9 °F 32.0 °F 96% 29.73 in 2.5 mi ENE 12.7 mph - 0.01 in Rain Light Rain
5:05 AM 33.8 °F 24.8 °F 32.0 °F 93% 29.72 in 3.0 mi ENE 12.7 mph - 0.00 in   Overcast
5:52 AM 32.0 °F 21.6 °F 30.0 °F 92% 29.74 in 6.0 mi ENE 15.0 mph - 0.01 in   Overcast
6:52 AM 30.9 °F 21.2 °F 28.9 °F 92% 29.72 in 10.0 mi ENE 12.7 mph - 0.00 in   Overcast
7:52 AM 32.0 °F 23.0 °F 30.0 °F 92% 29.75 in 8.0 mi ENE 11.5 mph - 0.00 in   Overcast
8:52 AM 30.9 °F 20.2 °F 28.9 °F 92% 29.74 in 10.0 mi ENE 15.0 mph - 0.01 in   Overcast
9:52 AM 30.9 °F 19.8 °F 28.9 °F 92% 29.74 in 6.0 mi ENE 16.1 mph - N/A   Overcast
10:52 AM 30.2 °F 20.2 °F 28.4 °F 93% 29.72 in 9.0 mi NE 12.7 mph - N/A   Overcast
11:52 AM 30.9 °F 22.2 °F 28.0 °F 89% 29.78 in 6.0 mi NNE 10.4 mph - N/A   Overcast
12:37 PM 30.2 °F 21.3 °F 26.6 °F 86% 29.79 in 2.5 mi NNE 10.4 mph - 0.00 in Rain Light Freezing Rain
12:52 PM 30.0 °F 21.1 °F 27.0 °F 88% 29.82 in 2.5 mi North 10.4 mph - 0.00 in Rain Light Freezing Rain
1:29 PM 30.2 °F 20.8 °F 26.6 °F 86% 29.82 in 10.0 mi NNE 11.5 mph - 0.00 in   Overcast
1:52 PM 30.0 °F 21.1 °F 27.0 °F 88% 29.86 in 10.0 mi North 10.4 mph - 0.00 in   Overcast
2:52 PM 30.0 °F 20.5 °F 27.0 °F 88% 29.88 in 9.0 mi North 11.5 mph - N/A   Overcast
3:50 PM 30.2 °F 21.9 °F 26.6 °F 86% 29.88 in 10.0 mi North 9.2 mph - N/A   Overcast
3:52 PM 30.2 °F 22.6 °F 26.6 °F 86% 29.89 in 10.0 mi North 8.1 mph - N/A   Overcast
4:52 PM 30.9 °F 23.5 °F 26.1 °F 82% 29.94 in 10.0 mi North 8.1 mph - N/A   Overcast
5:52 PM 30.9 °F 24.3 °F 26.1 °F 82% 29.96 in 10.0 mi NNE 6.9 mph - N/A   Overcast
6:52 PM 30.9 °F 26.2 °F 26.1 °F 82% 29.98 in 10.0 mi North 4.6 mph - N/A   Overcast
6:59 PM 30.2 °F 25.4 °F 26.6 °F 86% 29.96 in 10.0 mi North 4.6 mph - N/A   Overcast
7:38 PM 30.2 °F 24.3 °F 26.6 °F 86% 29.98 in 10.0 mi NNW 5.8 mph - N/A   Overcast
7:52 PM 30.9 °F 26.2 °F 26.1 °F 82% 30.00 in 10.0 mi NNW 4.6 mph - N/A   Overcast
8:17 PM 30.2 °F 24.3 °F 26.6 °F 86% 29.98 in 10.0 mi NW 5.8 mph - N/A   Overcast
8:52 PM 30.9 °F 25.2 °F 25.0 °F 79% 30.02 in 10.0 mi NNW 5.8 mph - N/A   Overcast
9:52 PM 30.9 °F 24.3 °F 25.0 °F 79% 30.04 in 10.0 mi NNW 6.9 mph - N/A   Overcast
10:52 PM 30.0 °F 24.1 °F 23.0 °F 75% 30.05 in 10.0 mi NW 5.8 mph - N/A   Overcast
11:52 PM 30.0 °F 23.2 °F 23.0 °F 75% 30.07 in 10.0 mi NW 6.9 mph - N/A   Overcast